Weather History for Fes-Sais, Morocco

Change the Weather History Date:

Sunday, November 4, 2012

  Actual Average Record
Temperature  
Mean Temperature 73 °F -  
Max Temperature 81 °F 64 °F 81 °F (2012)
Min Temperature 65 °F 44 °F -49 °F (2008)
Cooling Degree Days 8    
Growing Degree Days 23 (Base 50)    
Moisture  
Dew Point 62 °F    
Average Humidity 70    
Maximum Humidity 85    
Minimum Humidity 55    
Precipitation  
Precipitation 0.00 in 0.12 in - ()
Sea Level Pressure  
Sea Level Pressure 30.04 in    
Wind  
Wind Speed 6 mph ()    
Max Wind Speed 12 mph    
Max Gust Speed 102 mph    
Visibility 6.0 miles    
Events      
Averages and records for this station are not official NWS values.
T = Trace of Precipitation, MM = Missing Value Source: Averaged Metar Reports

Daily Weather History Graph

Daily Weather History Graph

Search for Another Location

Airport:

Trip Planner

Search our weather history database for the weather conditions in past years. The results will help you decide how hot, cold, wet, or windy it might be!

Date:

Astronomy

Nov. 04, 2012 Rise Set
Actual Time 6:42 AM WET 5:24 PM WET
Civil Twilight 6:16 AM WET 5:50 PM WET
Nautical Twilight 5:46 AM WET 6:19 PM WET
Astronomical Twilight 5:17 AM WET 6:49 PM WET
Moon 9:51 PM WET (11/4) 11:13 AM WET (11/4)
Length of Visible Light 11h 33m
Length of Day
10h 41m
Waning Gibbous, 74% of the Moon is Illuminated
Nov 4
Waning Gibbous
Nov 7
Last Quarter
Nov 13
New
Nov 20
First Quarter
Nov 28
Full

Hourly Weather History & Observations

Time (WET) Temp. Dew Point Humidity Pressure Visibility Wind Dir Wind Speed Gust Speed Precip Events Conditions
12:00 AM 70 °F 62 °F 67% 30.00 in 5 mi ENE 11.5 mph - -   Partly Cloudy
12:00 AM 69.8 °F 60.8 °F 73% 30.04 in 6.2 mi Variable 11.5 mph 87.5 mph N/A   Mostly Cloudy
1:00 AM 68.0 °F 53.6 °F 60% 30.04 in 6.2 mi WSW 6.9 mph - N/A   Scattered Clouds
2:00 AM 73.4 °F 60.8 °F 65% 30.04 in 6.2 mi SW 6.9 mph - N/A   Mostly Cloudy
3:00 AM 72 °F 61 °F 59% 29.98 in 5 mi SW 5.8 mph - -   Partly Cloudy
3:00 AM 71.6 °F 60.8 °F 69% 30.04 in 6.2 mi SW 5.8 mph - N/A   Mostly Cloudy
4:00 AM 69.8 °F 60.8 °F 73% 30.04 in 6.2 mi Variable 8.1 mph 102.4 mph N/A   Overcast
5:00 AM 69.8 °F 62.6 °F 78% 30.04 in 6.2 mi Variable 2.3 mph - N/A   Scattered Clouds
6:00 AM 71 °F 61 °F 62% 29.97 in 5 mi North 3.5 mph - -   Partly Cloudy
6:00 AM 69.8 °F 59.0 °F 68% 30.01 in 6.2 mi Variable 2.3 mph - N/A   Scattered Clouds
7:00 AM 68.0 °F 59.0 °F 73% 30.04 in 6.2 mi Variable 2.3 mph - N/A   Scattered Clouds
8:00 AM 71.6 °F 62.6 °F 73% 30.06 in 6.2 mi Calm Calm - N/A   Scattered Clouds
9:00 AM 72 °F 60 °F 56% 29.99 in 6 mi ENE 4.6 mph - -   Scattered Clouds
9:00 AM 73.4 °F 60.8 °F 65% 30.06 in 6.2 mi ENE 4.6 mph - N/A   Mostly Cloudy
10:00 AM 75.2 °F 60.8 °F 61% 30.06 in 6.2 mi East 3.5 mph - N/A   Mostly Cloudy
11:00 AM 75.2 °F 62.6 °F 65% 30.06 in 6.2 mi Variable 3.5 mph - N/A   Mostly Cloudy
12:00 PM 76 °F 63 °F 55% 29.98 in 6 mi North 5.8 mph - -   Scattered Clouds
12:00 PM 75.2 °F 62.6 °F 65% 30.04 in 6.2 mi North 5.8 mph - N/A   Mostly Cloudy
1:00 PM 78.8 °F 62.6 °F 57% 30.01 in 6.2 mi Variable 4.6 mph - N/A   Mostly Cloudy
2:00 PM 78.8 °F 62.6 °F 57% 30.01 in 6.2 mi NNW 4.6 mph - N/A   Mostly Cloudy
3:00 PM 75 °F 65 °F 62% 29.98 in 5 mi NNW 4.6 mph - -   Mostly Cloudy
3:00 PM 75.2 °F 62.6 °F 65% 30.04 in 6.2 mi Variable 6.9 mph - N/A   Mostly Cloudy
4:00 PM 75.2 °F 62.6 °F 65% 30.04 in 6.2 mi WNW 5.8 mph - N/A   Mostly Cloudy
5:00 PM 71.6 °F 66.2 °F 83% 30.06 in 6.2 mi NNW 2.3 mph - N/A   Mostly Cloudy
6:00 PM 71 °F 67 °F 82% 30.01 in 5 mi NE 6.9 mph - -   Mostly Cloudy
6:00 PM 71.6 °F 66.2 °F 83% 30.06 in 6.2 mi Variable 5.8 mph - N/A   Mostly Cloudy
7:00 PM 71.6 °F 66.2 °F 83% 30.06 in 6.2 mi Variable 2.3 mph - N/A   Mostly Cloudy
8:00 PM 69.8 °F 64.4 °F 83% 30.09 in 6.2 mi WNW 4.6 mph - N/A   Mostly Cloudy
9:00 PM 68 °F 64 °F 85% 30.06 in 5 mi WNW 8.1 mph - -   Mostly Cloudy
9:00 PM 68.0 °F 62.6 °F 83% 30.09 in 6.2 mi West 4.6 mph - N/A   Mostly Cloudy
10:00 PM 68.0 °F 62.6 °F 83% 30.12 in 6.2 mi West 4.6 mph - N/A   Mostly Cloudy
11:00 PM 68.0 °F 62.6 °F 83% 30.09 in 6.2 mi WSW 9.2 mph - N/A   Mostly Cloudy